Regional Weather Roundup
Issued by NWS Green Bay, WI

Home | Current Version | Previous Version | Text Only | Print | Product List | Glossary On
Versions: 1 2 3 4 5 6 7 8 9 10 11 12 13 14 15 16 17 18 19 20 21 22 23 24 25 26 27 28 29 30 31 32 33 34 35 36 37 38 39 40 41 42 43 44 45 46 47 48 49 50
000
ASUS43 KGRB 250800
RWRGRB

NORTH-CENTRAL AND NORTHEAST WISCONSIN REGIONAL WEATHER ROUNDUP
NATIONAL WEATHER SERVICE GREEN BAY WI
300 AM CDT SUN JUN 25 2017

WIZ005-009-010>012-018-019-250900-
NORTH CENTRAL WISCONSIN

CITY           SKY/WX    TMP DP  RH WIND       PRES   REMARKS
IRONWOOD       LGT RAIN  53  52  96 NW5       29.97S
MANITOWISH WTR NOT AVBL
ARBOR VITAE    NOT AVBL
EAGLE RIVER    NOT AVBL
LAND O LAKES   CLOUDY    52  50  95 N7        29.97S
RHINELANDER    CLOUDY    51  51 100 W9        29.96S
PHILLIPS       NOT AVBL
ANTIGO         NOT AVBL
TOMAHAWK       NOT AVBL
MERRILL        MOCLDY    50  49  98 W7        29.98S
$$

WIZ013-073-250900-
NORTHEAST WISCONSIN

CITY           SKY/WX    TMP DP  RH WIND       PRES   REMARKS
IRON MOUNTAIN  CLOUDY    53  50  89 N3        29.91S
MARINETTE      LGT RAIN  53  52  96 W3        29.94S
$$

WIZ017-030-035>037-045-250900-
CENTRAL WISCONSIN

CITY           SKY/WX    TMP DP  RH WIND       PRES   REMARKS
MEDFORD        NOT AVBL
WAUSAU         MOCLDY    51  48  89 W12       29.96F
MOSINEE        NOT AVBL
MARSHFIELD     CLEAR     49  45  86 W7        29.99F
WISC RAPIDS    CLEAR     50  46  86 W8        30.02S
STEVENS POINT  NOT AVBL
WAUPACA        MOCLDY    53  50  90 W6        29.98F
SHAWANO        NOT AVBL
CLINTONVILLE   NOT AVBL
WAUTOMA        PTCLDY    50  48  93 SW6       30.01S
$$

WIZ038-039-048-051-250900-
FOX VALLEY

CITY           SKY/WX    TMP DP  RH WIND       PRES   REMARKS
NWS GREEN BAY  LGT RAIN  53  53 100 SW3       29.96F
APPLETON       NOT AVBL
OSHKOSH        PTCLDY    52  47  83 W7        29.98F
FOND DU LAC    PTCLDY    50  46  86 SW7       30.00S
$$

WIZ022-050-052-250900-
EAST CENTRAL WISCONSIN

CITY           SKY/WX    TMP DP  RH WIND       PRES   REMARKS
EPHRAIM        NOT AVBL
WASHINGTON ISL NOT AVBL
STURGEON BAY   LGT RAIN  54  52  93 W9G18       N/A
MANITOWOC      NOT AVBL
SHEBOYGAN      CLEAR     52  48  86 W9        29.98S
$$

LMZ563-521-522-541>543-250900-
LAKESHORE

STATION/POSITION TIME  TEMP    WIND        PRES    VSBY  WAVE
                       AIR SEA DIR/SP/G                  HT/PER
                 (UTC) (F)     (DEG/KT/KT) (MB)    (MI)  (FT/S)
SHEBOYGAN LKSHOR 0700   54     260/ 12/ 14 1015.0S
KEWAUNEE LKSHORE 0730   53     270/  7/ 10 1013.8S
NORTHPORT PIER   0740   56     280/  6/  9 1012.9F
N MID LAKE BUOY  0650   56 57   90/  2/  2 1013.5F         1
S GREEN BAY BUOY 0730   58     280/ 14/ 17 1013.8F
CHAMBERS ISLAND  0740   55     240/  7/ 12 1013.2F
MENOMINEE LKSHOR 0730          260/  6/ 11 1012.9F
$$




USA.gov is the U.S. government's official web portal to all federal, state and local government web resources and services.